User: anonymous   Login
Location: Mentone
(34.5413°N, 85.5351°W)
Time: 17:52:32
(UTC-06:00)
Language:

Cosmos 1703 - Orbit

View from above orbital plane
View from above orbital plane
View from above satellite
View from above satellite

Ground track
Ground track

The orbit data is extracted from the following two-line orbital elements,

1 16262U 85108A   16038.06599480  .00001976  00000-0  12167-3 0  9991
2 16262  82.4900  16.8451 0010524 174.4893 185.6454 15.09421349644033
Epoch (UTC): 07 February 2016 01:35:01
Eccentricity: 0.0010524
inclination: 82.4900°
perigee height: 530 km
apogee height: 545 km
right ascension of ascending node: 16.8451°
argument of perigee: 174.4893°
revolutions per day: 15.09421349
mean anomaly at epoch: 185.6454°
orbit number at epoch: 64403

The dashed part of the orbit path shows where the satellite is in the earth's shadow,  

DLR